Location: Uitonsalmi
(62.1000°N, 25.7333°E)
Time: 01:09:18
(UTC+00:00)

Daily predictions for brighter satellites

Satellite Brightness Start Highest point End
(mag) Time Altitude Azimuth Time Altitude Azimuth Time Altitude Azimuth
ATLAS 2AS CENTAUR R/B 3.1 00:12:18 71° ENE 00:12:18 71° ENE 00:18:59 10° ENE
Cosmos 2360 Rocket 3.5 00:16:10 36° NE 00:16:10 36° NE 00:19:28 10° NE
Cosmos 1697 Rocket 4.0 00:16:08 36° NNE 00:16:08 36° NNE 00:20:09 10° NE
CZ-2D R/B 3.5 00:14:43 10° NNE 00:17:41 34° NNE 00:17:41 34° NNE
Cosmos 1980 Rocket 3.4 00:22:31 38° NNE 00:22:31 38° NNE 00:26:23 10° NE
COSMOS 2428 4.1 00:28:41 33° E 00:28:41 33° E 00:32:29 10° NE
Cosmos 2344 3.6 00:29:06 88° SSE 00:29:06 88° SSE 00:38:47 10° ENE
Cosmos 2181 Rocket 4.4 00:40:48 62° ENE 00:40:48 62° ENE 00:46:34 10° NNE
Cosmos 2369 Rocket 3.4 00:42:57 36° E 00:42:57 36° E 00:46:31 10° ESE
ADEOS II 3.3 00:36:01 10° NNE 00:39:51 39° ENE 00:39:51 39° ENE
SL-16 R/B 3.0 00:47:32 47° NNE 00:47:32 47° NNE 00:51:45 10° NE
Resurs 1-4 Rocket 3.1 00:52:26 10° NNE 00:56:00 43° N 00:56:00 43° N
USA 215 4.4 01:01:16 10° E 01:06:42 30° SE 01:06:42 30° SE
Cosmos 2333 Rocket 2.6 01:13:45 60° E 01:13:45 60° E 01:18:39 10° NE
ARIANE 5 R/B 3.3 01:08:26 10° NNE 01:12:23 49° ENE 01:12:23 49° ENE
Cosmos 2322 4.0 01:18:20 65° NE 01:18:20 65° NE 01:23:09 10° NE
Cosmos 2333 4.4 01:19:02 67° NE 01:19:02 67° NE 01:23:58 10° NE
Cosmos 921 Rocket 4.4 01:26:26 36° NNE 01:26:55 38° NE 01:31:03 10° ESE
NOSS 3-4 (A) 3.5 01:27:35 76° NW 01:28:00 80° N 01:35:04 10° E
NOSS 3-4 (C) 3.5 01:27:40 76° NW 01:28:06 80° N 01:35:10 10° E
Cosmos 1934 Rocket 4.1 01:21:59 10° NNW 01:28:17 72° ENE 01:30:48 39° SSE
RESURS DK-1 4.2 01:31:08 28° NNE 01:31:08 28° NNE 01:33:38 10° NE
Cosmos 2322 Rocket 2.8 01:30:10 49° NNW 01:30:10 49° NNW 01:35:29 10° NE
Cosmos 1048 Rocket 4.3 01:32:19 61° NE 01:32:19 61° NE 01:36:33 10° NE
COSMOS 2455 3.3 01:35:13 48° NNW 01:36:14 54° N 01:42:11 10° E
CZ-4C R/B 3.0 01:36:43 43° SE 01:36:59 43° SE 01:43:04 10° ENE
Cosmos 2237 Rocket 2.7 01:38:03 49° SE 01:38:26 50° ESE 01:43:52 10° NE
NPP 4.3 01:34:07 10° NNE 01:38:18 44° NNW 01:38:18 44° NNW
EO 1 Delta rocket 4.3 01:34:34 10° NNE 01:39:30 69° E 01:39:47 67° ESE
Cosmos 1821 Rocket 4.0 01:34:03 10° NNW 01:39:12 62° NW 01:39:12 62° NW
Cosmos 1461 4.2 01:42:33 39° ENE 01:42:33 39° ENE 01:45:20 10° ENE
Cosmos 1455 4.0 01:43:31 29° ENE 01:43:31 29° ENE 01:46:17 10° NNE
Cosmos 2219 Rocket 2.1 01:44:59 85° NNE 01:44:59 85° NNE 01:50:34 10° NE
COSMO-SKYMED 1 4.3 01:46:49 10° ESE 01:50:40 32° NE 01:54:33 10° N
Cosmos 1943 Rocket 3.4 01:56:19 29° SSE 01:56:19 29° SSE 01:58:55 10° SSE
Cosmos-2242 3.9 01:53:29 45° E 01:53:29 45° E 01:57:35 10° NNE
Cosmos 1605 Rocket 4.1 01:47:55 10° NNW 01:54:14 74° ENE 02:00:25 10° SSE
Cosmos 2360 Rocket 2.5 01:57:55 51° NW 01:58:08 51° NNW 02:03:40 10° NE
CZ-2D R/B 3.1 01:55:04 10° NNE 01:59:01 35° NNW 01:59:01 35° NNW
Cosmos 1697 Rocket 4.0 01:57:51 26° NW 02:00:01 34° N 02:05:10 10° ENE
Cosmos 1340 Rocket 4.2 02:02:17 34° N 02:02:17 34° N 02:04:42 10° NNE
ATLAS 2AS CENTAUR R/B 3.0 01:59:42 43° WNW 02:02:41 82° N 02:10:14 10° E
Cosmos 2239 Rocket 4.5 01:58:29 10° NNW 02:04:08 60° WNW 02:04:08 60° WNW
Cosmos 1980 Rocket 3.4 02:04:15 27° NW 02:06:06 34° N 02:11:12 10° ENE
Cosmos 494 Rocket 3.8 02:06:37 88° NW 02:06:37 88° NW 02:11:47 10° NE
NOSS 2-2 (D) 3.9 02:10:26 77° SW 02:10:35 78° SSW 02:17:05 10° ESE
COSMOS 2428 2.6 02:10:41 69° W 02:11:13 74° NW 02:17:00 10° NE
MSX 4.3 02:08:00 10° NNE 02:13:40 57° ESE 02:17:13 23° S
COBE Rocket 4.4 02:17:03 49° NW 02:17:03 49° NW 02:21:01 10° NNW
ATLAS CENTAUR R/B 2.9 02:16:07 29° SSE 02:16:50 30° SE 02:20:40 10° ENE
CZ-2C R/B 3.7 02:12:27 10° NNE 02:17:25 41° E 02:22:16 10° SSE
Nadezhda 3 Rocket 3.9 02:15:27 47° SSW 02:17:27 86° WNW 02:23:53 10° NNE
IRS-1C 4.4 02:12:36 10° NNE 02:17:42 52° NW 02:17:42 52° NW
Cosmos 1812 Rocket 4.0 02:18:47 53° NNW 02:18:47 53° NNW 02:22:25 10° NNE
ADEOS Rocket 4.5 02:13:29 10° ESE 02:19:45 44° NE 02:26:38 10° NNW
ADEOS II 2.4 02:15:52 10° NNE 02:20:48 49° NW 02:20:48 49° NW
SL-16 R/B 3.1 02:19:42 26° S 02:22:28 45° ESE 02:27:52 10° NE
IDEFIX/ARIANE 42P 2.6 02:17:56 10° NNE 02:23:15 82° ESE 02:24:45 48° S
Cosmos 2369 Rocket 2.1 02:24:49 61° WSW 02:25:08 62° WSW 02:30:46 10° SSE
Cosmos 2251 Rocket 4.4 02:22:38 25° S 02:25:22 46° ESE 02:30:27 10° NE
Cosmos 2181 Rocket 4.5 02:25:38 42° WNW 02:26:08 42° WNW 02:32:16 10° NNE
Cosmos 1980 3.6 02:27:05 55° SW 02:28:24 87° SE 02:34:09 10° NE
IRS-1D 4.3 02:25:05 10° NNE 02:29:34 35° NW 02:29:34 35° NW
NOSS 0 Rocket 3.9 02:28:43 50° SW 02:30:32 89° SE 02:36:49 10° NE
SL-16 R/B 3.2 02:29:23 30° NW 02:31:08 36° NNW 02:36:24 10° NE
H-2A R/B 4.4 02:27:37 10° NNE 02:31:30 30° E 02:35:26 10° SSE
Cosmos 1633 3.8 02:28:09 10° N 02:31:39 41° ENE 02:35:09 10° SE
Cosmos 1356 Rocket 4.3 02:30:22 28° SSE 02:32:09 46° E 02:36:09 10° NNE
Cosmos 1500 Rocket 3.7 02:28:43 10° NNW 02:33:12 76° ENE 02:37:38 10° SSE
Cosmos 1656 Rocket 3.6 02:30:40 23° NW 02:34:18 85° SW 02:40:00 10° SE
Resurs 1-4 Rocket 3.4 02:32:42 10° N 02:37:00 26° NW 02:37:05 26° NW
SKYMED 2 4.0 02:34:16 10° SE 02:38:34 63° ENE 02:42:53 10° NNW
Cosmos 2263 4.1 02:39:18 35° WNW 02:41:40 62° WSW 02:47:15 10° SSE
COSMOS 2441 4.4 02:37:43 10° NNE 02:42:40 78° ESE 02:45:09 30° S
Cosmos 2344 4.0 02:39:05 30° WNW 02:43:57 86° NNE 02:54:53 10° ESE
Cosmos 2100 Rocket 4.2 02:39:20 10° NNW 02:45:38 74° ENE 02:51:49 10° SSE
Cosmos 1743 Rocket 3.4 02:41:26 10° NNW 02:45:48 84° WSW 02:50:08 10° S
CBERS 1 LM4 rocket 4.4 02:41:06 10° NNE 02:46:19 90° WNW 02:48:25 36° SSW
Cosmos 1269 Rocket 4.0 02:46:18 51° WSW 02:47:29 67° NW 02:52:47 10° NE
Spot 4 Rocket 4.3 02:44:30 10° NNE 02:49:27 48° WNW 02:50:06 45° W
Celestis-02/Orion 38 4.4 02:44:28 10° NE 02:49:36 88° NW 02:51:19 44° SW
NOSS 2-2 (C) 4.2 02:48:45 48° W 02:50:01 61° SSW 02:56:38 10° SE
USA 215 3.7 02:44:37 10° E 02:51:00 51° SSE 02:54:03 30° SW
ARIANE 5 R/B 3.0 02:47:47 10° NNE 02:52:25 39° NW 02:52:44 38° WNW
CZ-2D R/B 4.2 02:48:30 10° N 02:51:57 37° NW 02:51:57 37° NW
NOSS 2-2 (E) 4.3 02:51:18 45° W 02:52:41 57° SW 02:59:26 10° SE
Cosmos 2084 Rocket 3.5 02:53:28 56° WNW 02:54:24 84° N 02:58:54 10° E
Meteor 2-3 Rocket 3.7 02:49:07 10° NNW 02:54:47 64° W 03:00:30 10° S
ADEOS 3.6 02:49:47 10° NNE 02:55:03 80° ESE 02:58:57 19° SSW
Cosmos 1459 Rocket 4.1 02:50:20 10° NNW 02:56:31 79° ENE 03:02:46 10° SSE
Cosmos 2333 Rocket 2.6 02:55:44 38° W 02:57:31 51° NNW 03:03:06 10° NE
Cosmos 2322 4.4 03:00:16 32° WNW 03:02:13 43° NNW 03:07:38 10° NE
Alouette 2 Rocket 4.3 03:01:23 42° W 03:02:37 53° NW 03:09:12 10° NNE
Cosmos 2061 Rocket 4.3 02:56:24 10° NNW 03:02:45 69° ENE 03:08:58 10° SSE
Cosmos 1862 4.1 02:59:02 10° N 03:02:58 53° ENE 03:06:51 10° SSE
NOSS 7 (H) 4.1 03:05:16 85° NNE 03:05:16 85° NNE 03:08:37 10° ENE
Cosmos 921 Rocket 3.0 03:03:17 28° NW 03:05:27 58° WSW 03:09:47 10° SSE
Meteor 2-1 Rocket 4.3 03:06:05 37° WSW 03:07:55 52° WNW 03:13:25 10° NNE
Cosmos 1484 Rocket 4.0 03:04:25 10° NNE 03:08:11 42° E 03:11:59 10° S
Cosmos 1842 Rocket 3.9 03:03:55 10° S 03:08:22 68° E 03:12:51 10° NNE
RESURS DK-1 3.9 03:07:00 21° NW 03:08:43 28° N 03:12:23 10° ENE
Cosmos 1725 Rocket 4.5 03:02:54 10° NNW 03:09:07 64° ENE 03:15:22 10° SSE
CZ-2C R/B 3.8 03:09:31 10° N 03:12:13 29° NW 03:12:13 29° NW
Cosmos 1340 4.2 03:10:32 10° N 03:14:06 38° ENE 03:17:39 10° SE
Cosmos 2322 Rocket 3.3 03:11:58 20° NW 03:15:07 34° N 03:20:19 10° ENE
deb Chang Zheng 4 4.1 03:11:22 10° N 03:15:22 38° WNW 03:15:45 37° WNW
USA 116 3.3 03:13:07 10° SSE 03:16:12 71° ENE 03:19:24 10° NNW
PSLV R/B 3.5 03:12:40 10° NNE 03:16:49 58° WNW 03:18:07 39° WSW
Cosmos 1455 2.5 03:18:26 43° WNW 03:18:27 43° WNW 03:22:05 10° N
NOSS 3-4 (A) 3.6 03:15:01 25° WNW 03:19:10 83° SSW 03:26:28 10° ESE
NOSS 3-4 (C) 3.6 03:15:06 25° WNW 03:19:16 83° SSW 03:26:34 10° ESE
Cosmos 1633 Rocket 3.8 03:15:21 10° N 03:19:40 55° ENE 03:23:58 10° SSE
Meteor 2-10 Rocket 3.4 03:16:51 23° SW 03:20:10 67° WNW 03:25:16 10° NNE
Cosmos 1461 3.3 03:18:55 35° WNW 03:20:27 57° N 03:24:46 10° E
NOSS 6 (F) 4.5 03:20:07 68° WNW 03:20:28 89° S 03:23:49 10° ESE
SJ-6F 4.3 03:17:22 10° NNE 03:21:33 87° WNW 03:24:49 16° SSW
Cosmos 1802 Rocket 4.0 03:15:42 10° NNW 03:22:11 88° WSW 03:28:39 10° S
Cosmos 2237 Rocket 2.3 03:19:53 31° WSW 03:22:30 62° NW 03:28:07 10° NE
COSMOS 2455 3.0 03:18:21 19° NW 03:22:51 74° NNE 03:28:54 10° ESE
Cosmos 1666 Rocket 4.0 03:18:39 10° NNW 03:23:08 66° ENE 03:27:33 10° SSE
Cosmos 1346 Rocket 4.1 03:20:58 10° N 03:24:43 40° ENE 03:28:25 10° SE
CZ-4C R/B 2.4 03:21:53 29° WSW 03:25:05 87° SSE 03:32:05 10° ENE
Cosmos 2221 2.7 03:21:51 10° S 03:26:08 75° ESE 03:30:28 10° NNE
COSMO-SKYMED 1 2.5 03:22:20 10° S 03:26:39 62° WSW 03:31:00 10° NNW
Cosmos 1238 Rocket 3.8 03:21:40 10° NNW 03:28:11 88° WSW 03:33:48 10° S
Cosmos 2219 Rocket 2.8 03:26:42 26° WNW 03:29:24 42° NNW 03:34:49 10° NE
Cosmos-2242 3.6 03:30:20 34° W 03:31:11 37° WNW 03:35:12 10° N
Cosmos 468 Rocket 4.0 03:26:41 10° NW 03:32:04 86° NE 03:37:24 10° SE
Meteor 1-27 4.3 03:27:52 10° SSW 03:33:26 82° ESE 03:39:03 10° NNE
Cosmos 1943 Rocket 3.4 03:37:56 20° SW 03:37:56 20° SW 03:40:36 10° SSW
Meteor 1-31 Rocket 2.6 03:33:03 10° NNE 03:36:54 87° WNW 03:40:44 10° SSW
Cosmos 1340 Rocket 4.5 03:37:52 18° NW 03:37:52 18° NW 03:40:43 10° N
CZ-2D R/B 3.9 03:35:45 10° N 03:38:42 15° NNW 03:40:21 14° NW
DMSP B5D1-3 4.5 03:34:07 10° SSE 03:39:14 87° WSW 03:44:24 10° NNW
Cosmos 1570 Rocket 4.3 03:36:09 10° NW 03:41:29 73° NE 03:46:50 10° SE
NOSS 7 (E) 4.2 03:41:50 39° W 03:42:51 75° N 03:46:15 10° ENE
CZ-4B R/B 2.6 03:39:08 10° NNE 03:42:56 88° ESE 03:46:35 10° SSW
Cosmos 2360 Rocket 3.3 03:39:41 18° WNW 03:43:15 34° N 03:48:23 10° ENE
Cosmos 1697 Rocket 3.4 03:39:35 10° NW 03:45:07 51° NNE 03:50:37 10° ESE
Cosmos 2016 Rocket 3.9 03:39:16 10° NNW 03:45:30 77° W 03:51:47 10° S
Cosmos 1174 4.1 03:44:49 26° NW 03:46:04 39° N 03:49:08 10° E
NOSS 2-1 (C) 3.7 03:46:03 20° SW 03:48:23 58° SSE 03:52:43 10° ENE
Cosmos 1980 Rocket 3.1 03:46:00 10° NW 03:51:19 43° NNE 03:56:41 10° E
ALOS 2.6 03:47:02 10° NNE 03:51:44 70° ESE 03:56:24 10° S
NOSS 2-1 (D) 3.6 03:50:02 20° SW 03:52:27 61° SSE 03:56:50 10° ENE
ATLAS 2AS CENTAUR R/B 3.0 03:47:08 15° WNW 03:53:48 70° SW 04:01:04 10° SE
PAYLOAD A 4.1 03:49:31 10° NNE 03:54:10 49° WNW 03:58:46 11° SW
MSX 4.1 03:49:56 10° NNE 03:55:23 46° NW 04:00:17 13° SW
ATLAS CENTAUR R/B 1.5 03:52:19 20° WSW 03:55:27 82° SSE 03:59:43 10° ENE
CZ-2C R/B 2.7 03:50:44 10° NNE 03:55:50 55° WNW 04:00:51 10° SW
COSMOS 2428 3.5 03:52:41 19° WNW 03:56:17 39° NNW 04:01:41 10° NE
Cosmos 841 Rocket 3.7 03:52:30 10° NW 03:57:45 75° NE 04:03:00 10° SE
FENGYUN 3A 3.9 03:53:01 10° NNE 03:58:30 74° ESE 04:03:57 10° SSW
CZ-2C R/B 4.3 03:53:40 10° ESE 03:58:44 36° NE 04:03:48 10° NNW
ADEOS II 3.7 03:56:06 10° N 03:59:42 19° NW 04:01:45 15° WNW
IDEFIX/ARIANE 42P 3.4 03:57:53 10° N 04:02:29 31° NW 04:05:34 18° W
Cosmos 2233 Rocket 4.1 03:56:25 10° NNW 04:02:42 86° ENE 04:09:01 10° SSE
Cosmos 1470 Rocket 3.8 03:58:34 10° NNW 04:03:03 75° ENE 04:07:31 10° SSE
Cosmos 1805 Rocket 3.9 03:59:33 10° NNW 04:03:39 41° W 04:07:43 10° SSW
Sich 1 3.1 03:59:30 10° NNW 04:03:40 51° W 04:07:50 10° S
Cosmos 192 4.3 03:59:28 10° NW 04:04:20 64° WSW 04:09:12 10° SSE
ADEOS Rocket 3.3 03:58:19 10° SSE 04:04:55 75° WSW 04:12:18 10° NNW
Cosmos 1763 Rocket 3.5 04:00:12 10° NW 04:05:32 73° WSW 04:10:51 10° SSE
Cosmos 1633 3.3 04:03:10 10° NNW 04:06:26 31° W 04:09:40 10° SSW
SL-16 R/B 2.2 04:01:36 14° WSW 04:06:30 67° NW 04:12:11 10° NE
H-2A R/B 2.6 04:02:59 10° NNE 04:07:15 61° WNW 04:11:39 10° SW
Cosmos 2251 Rocket 3.7 04:03:08 14° WSW 04:07:39 56° NW 04:12:56 10° NE
Meteor PRIRODA 3.6 04:04:23 10° NNE 04:08:07 70° WNW 04:11:48 10° SSW
Cosmos 2369 Rocket 3.5 04:06:41 17° W 04:08:12 19° W 04:12:04 10° SW
Spot 2 4.3 04:04:35 10° NNE 04:08:27 43° WNW 04:12:22 10° SW
Cosmos 1356 Rocket 4.0 04:06:32 16° WSW 04:09:20 35° WNW 04:13:12 10° N
Cosmos 1869 3.2 04:05:39 10° SSW 04:09:37 70° WNW 04:13:34 10° NNE
Cosmos 1400 Rocket 3.8 04:05:42 10° S 04:09:39 52° E 04:13:41 10° NNE
Cosmos 1656 3.9 04:06:23 10° NW 04:12:05 78° NE 04:17:49 10° SE
Cosmos 1980 4.3 04:08:55 17° W 04:13:02 44° NNW 04:18:30 10° NE
Cosmos 2173 Rocket 4.3 04:07:49 10° NNW 04:13:45 44° W 04:19:35 10° SSW
SKYMED 2 4.4 04:11:17 10° SSW 04:15:04 29° W 04:18:53 10° NNW
Resurs 1-4 Rocket 4.2 04:13:08 10° N 04:15:18 13° NNW 04:17:28 10° NW
SL-16 R/B 3.3 04:11:15 10° NW 04:16:32 37° NNE 04:21:50 10° E
H-2A R/B 4.4 04:13:45 10° NNE 04:17:20 38° E 04:20:51 10° SSE
NOSS 0 Rocket 4.4 04:12:43 16° W 04:17:36 48° NNW 04:23:37 10° NE
Cosmos 1727 Rocket 4.1 04:11:49 10° SW 04:17:52 55° WNW 04:23:59 10° NNE
CZ-4B DEB 4.3 04:17:02 10° NNE 04:22:36 82° ESE 04:28:05 10° SSW
CZ-4B R/B 4.4 04:18:37 10° N 04:22:39 44° WNW 04:26:49 10° SW
Cosmos 1603 3.9 04:17:12 10° SW 04:22:55 80° SE 04:28:37 10° NE
Cosmos 2278 4.2 04:18:26 10° NW 04:24:05 59° NE 04:29:41 10° ESE
Okean O Rocket 2.1 04:21:35 10° NNE 04:25:59 67° ESE 04:30:20 10° S
Cosmos 1943 3.5 04:21:14 10° SSW 04:26:50 72° SE 04:32:30 10° NE
CZ-4B R/B 3.6 04:23:50 10° NNE 04:29:13 67° ESE 04:34:29 10° S
ARIANE 5 R/B 4.2 04:27:35 10° N 04:30:26 15° NNW 04:33:04 11° WNW
SMAP 4.4 04:26:26 10° NNE 04:30:56 44° E 04:35:24 10° S
SJ-12 3.9 04:27:05 10° NNE 04:31:11 62° WNW 04:35:16 10° SSW
Cosmos 2084 Rocket 3.8 04:30:00 13° WNW 04:33:52 57° SSW 04:38:15 10° SE
ADEOS 4.4 04:29:38 10° NNE 04:34:15 32° NW 04:38:50 10° WSW
USA 215 3.6 04:28:14 10° ESE 04:34:43 59° S 04:41:11 10° W
Cosmos 1869 Rocket 4.4 04:30:29 10° N 04:34:47 52° ENE 04:39:01 10° SE
Meteor 1-20 Rocket 4.3 04:29:06 10° NNW 04:34:47 88° WSW 04:40:32 10° SSE
MOS 1-B 4.4 04:31:10 10° NNE 04:37:02 84° WNW 04:42:52 10° SSW
Cosmos 1151 Rocket 3.6 04:34:08 10° S 04:38:25 63° E 04:42:46 10° NNE
Cosmos 1862 4.2 04:35:45 10° NNW 04:39:10 28° W 04:42:34 10° SSW
NOSS 2-1 (E) 3.5 04:35:46 10° WSW 04:39:31 85° SSE 04:44:18 10° ENE
Helios 1A Rocket 3.5 04:36:13 10° NNE 04:40:22 63° ESE 04:44:30 10° S
GEOS 3 Rocket 4.2 04:35:48 10° ENE 04:41:03 61° SE 04:46:20 10° SW
Cosmos 1484 Rocket 3.4 04:38:58 10° N 04:42:36 37° WNW 04:46:17 10° SW
Cosmos 2333 Rocket 3.2 04:37:44 10° WNW 04:42:54 35° N 04:48:08 10° ENE
Cosmos 1140 Rocket 3.5 04:39:16 10° SW 04:44:32 89° WNW 04:49:50 10° NE
Cosmos 1954 Rocket 4.3 04:39:54 10° SSW 04:45:14 75° ESE 04:50:34 10° NE
Cosmos 2369 3.9 04:40:05 10° NW 04:45:50 81° NE 04:51:33 10° SE
Cosmos 407 Rocket 3.5 04:40:46 10° SW 04:46:05 74° NW 04:51:23 10° NE
Cosmos 1328 Rocket 3.9 04:41:45 10° S 04:46:11 74° ESE 04:50:38 10° NNE
RESURS DK-1 3.3 04:43:36 10° NW 04:47:38 43° NNE 04:51:38 10° E
Cosmos 1340 3.2 04:46:14 10° NNW 04:49:45 37° W 04:53:13 10° SSW
Cosmos 2360 4.5 04:46:04 10° NW 04:51:50 74° NE 04:57:32 10° SE
Elektron 3 4.3 04:49:08 11° W 04:51:52 46° SSW 04:55:04 10° SE
Cosmos 540 Rocket 3.5 04:48:54 10° NW 04:54:01 63° WSW 04:59:08 10° SSE
Cosmos 1725 Rocket 4.4 04:48:36 10° NNW 04:54:22 40° W 05:00:08 10° SSW
Cosmos 1455 4.2 04:53:49 10° WNW 04:55:06 11° NW 04:56:23 10° NNW
NOSS 7 (H) 4.5 04:52:10 10° WNW 04:55:18 76° N 04:59:13 10° E
Cosmos 1602 3.8 04:52:33 10° NNW 04:56:26 81° ENE 05:00:17 10° SSE
Cosmos 1633 Rocket 3.8 04:53:26 10° NNW 04:57:18 31° W 05:01:10 10° SSW
Cosmos 2344 4.4 04:49:55 10° WNW 04:58:31 63° SW 05:10:15 10° SE
Cosmos 2208 Rocket 4.3 04:53:51 10° NW 04:58:59 51° WSW 05:04:02 10° S
Cosmos 1461 3.1 04:55:38 10° WNW 04:59:53 80° NNE 05:04:20 10° ESE
METEOR-M 4.3 04:54:56 10° NNE 05:00:08 54° WNW 05:05:20 10° SW
Cosmos 2322 Rocket 3.1 04:54:57 10° NW 05:00:25 43° NNE 05:05:51 10° E
Cosmos 1346 Rocket 3.3 04:57:27 10° NNW 05:01:05 36° W 05:04:40 10° SSW
Cosmos 1933 Rocket 3.7 04:57:11 10° NNW 05:01:28 53° W 05:05:41 10° S
PSLV R/B 4.3 04:59:40 10° N 05:03:05 34° WNW 05:06:30 10° SW
PAYLOAD B 4.3 04:57:29 10° NNE 05:03:05 69° WNW 05:08:37 10° SW
COSMO-SKYMED 1 4.2 05:01:26 10° WSW 05:03:44 14° W 05:06:02 10° NW
Cosmos 2221 3.6 05:00:35 10° WSW 05:04:12 25° NW 05:07:50 10° N
MOS 1 Rocket 4.0 05:00:08 10° SE 05:04:38 54° ENE 05:08:56 10° NNW
Cosmos 1464 Rocket 4.1 04:58:37 10° NNW 05:05:02 86° WSW 05:11:22 10° S
Cosmos 614 Rocket 4.1 05:00:18 10° SW 05:05:26 56° NW 05:10:37 10° NE
Cosmos 1515 Rocket 3.9 05:01:57 10° S 05:06:23 74° E 05:10:49 10° NNE
Cosmos 2123 Rocket 4.1 05:01:07 10° SSW 05:07:23 64° WNW 05:13:39 10° NNE
Meteor 1-25 Rocket 4.3 05:02:00 10° NNW 05:07:30 59° W 05:12:56 10° S
Cosmos 2237 Rocket 3.0 05:02:19 10° WNW 05:07:31 36° NNW 05:12:42 10° NE
